Location: Carri�res
(48.9069°N, 2.1792°E)
Time: 12:49:54
(UTC+00:00)

H-2A R/B - Pass Details

Date: 17 January 2021
Orbit: 577 x 655 km, 98.5° (Epoch: 25 February)

Event Time Altitude Azimuth Distance (km) Brightness Sun altitude
Rises 17:39:09 0° 12° (NNE) 2,989 5.3 -11.8°
Reaches altitude 10° 17:41:24 10° 10° (N) 2,067 4.5 -12.2°
Maximum altitude 17:45:53 69° 288° (WNW) 694 2.5 -12.9°
Drops below altitude 10° 17:50:15 10° 206° (SSW) 2,015 5.3 -13.6°
Sets 17:52:25 0° 203° (SSW) 2,906 6.1 -13.9°
